Location: Little Maitland River
(43.8022°N, 81.1549°W)
Time: 19:49:05
(UTC+00:00)

Tiangong - Pass Details

Date: 09 March 2026
Orbit: 375 x 384 km, 41.5° (Epoch: 21 April)

Event Time Altitude Azimuth Distance (km) Brightness Sun altitude
Rises 11:13:31 0° 210° (SSW) 2,259 1.4 -6.9°
Reaches altitude 10° 11:16:17 10° 184° (S) 1,413 0.7 -6.4°
Maximum altitude 11:18:02 14° 150° (SSE) 1,205 0.8 -6.1°
Drops below altitude 10° 11:19:48 10° 117° (ESE) 1,422 1.9 -5.8°
Sets 11:22:36 0° 91° (E) 2,285 4.9 -5.3°
